owner,sensor,date,latitude,longitude,vertical_datum,sea_water_speed,direction_of_sea_water_velocity,upward_sea_water_velocity,qcFlag
Anadarko,ioos:station:wmo:42377:1,2022-01-01T00:03:00Z,27.2925,-90.9681,21.3,94.8,109.2,-9999.0,'111111111,111111111,999999991'
Anadarko,ioos:station:wmo:42377:1,2022-01-01T00:23:00Z,27.2925,-90.9681,21.3,97.0,109.6,-9999.0,'111111111,111111111,999999991'
Anadarko,ioos:station:wmo:42377:1,2022-01-01T00:43:00Z,27.2925,-90.9681,21.3,96.5,110.4,-9999.0,'111111111,111111111,999999991'
Anadarko,ioos:station:wmo:42377:1,2022-01-01T01:03:00Z,27.2925,-90.9681,21.3,97.9,107.5,-9999.0,'111111111,111111111,999999991'
Anadarko,ioos:station:wmo:42377:1,2022-01-01T01:23:00Z,27.2925,-90.9681,21.3,100.2,107.8,-9999.0,'111111111,111111111,999999991'
Anadarko,ioos:station:wmo:42377:1,2022-01-01T01:43:00Z,27.2925,-90.9681,21.3,96.7,111.3,-9999.0,'111111111,111111111,999999991'
Anadarko,ioos:station:wmo:42377:1,2022-01-01T02:03:00Z,27.2925,-90.9681,21.3,87.9,117.6,-9999.0,'111111111,111111111,999999991'
Anadarko,ioos:station:wmo:42377:1,2022-01-01T02:23:00Z,27.2925,-90.9681,21.3,92.4,120.5,-9999.0,'111111111,111111111,999999991'
Anadarko,ioos:station:wmo:42377:1,2022-01-01T02:43:00Z,27.2925,-90.9681,21.3,90.8,118.5,-9999.0,'111111111,111111111,999999991'
Anadarko,ioos:station:wmo:42377:1,2022-01-01T03:03:00Z,27.2925,-90.9681,21.3,94.6,117.7,-9999.0,'111111111,111111111,999999991'
Anadarko,ioos:station:wmo:42377:1,2022-01-01T03:23:00Z,27.2925,-90.9681,21.3,93.8,114.4,-9999.0,'111111111,111111111,999999991'
Anadarko,ioos:station:wmo:42377:1,2022-01-01T03:43:00Z,27.2925,-90.9681,21.3,92.7,114.0,-9999.0,'111111111,111111111,999999991'
Anadarko,ioos:station:wmo:42377:1,2022-01-01T04:03:00Z,27.2925,-90.9681,21.3,95.2,112.0,-9999.0,'111111111,111111111,999999991'
Anadarko,ioos:station:wmo:42377:1,2022-01-01T04:23:00Z,27.2925,-90.9681,21.3,96.2,108.7,-9999.0,'111111111,111111111,999999991'
Anadarko,ioos:station:wmo:42377:1,2022-01-01T04:43:00Z,27.2925,-90.9681,21.3,97.3,108.3,-9999.0,'111111111,111111111,999999991'
Anadarko,ioos:station:wmo:42377:1,2022-01-01T05:03:00Z,27.2925,-90.9681,21.3,98.6,106.4,-9999.0,'111111111,111111111,999999991'
Anadarko,ioos:station:wmo:42377:1,2022-01-01T05:23:00Z,27.2925,-90.9681,21.3,99.2,104.7,-9999.0,'111111111,111111111,999999991'
Anadarko,ioos:station:wmo:42377:1,2022-01-01T05:43:00Z,27.2925,-90.9681,21.3,98.4,106.3,-9999.0,'111111111,111111111,999999991'
Anadarko,ioos:station:wmo:42377:1,2022-01-01T06:03:00Z,27.2925,-90.9681,21.3,98.5,105.3,-9999.0,'111111111,111111111,999999991'
Anadarko,ioos:station:wmo:42377:1,2022-01-01T06:23:00Z,27.2925,-90.9681,21.3,99.9,106.5,-9999.0,'111111111,111111111,999999991'
Anadarko,ioos:station:wmo:42377:1,2022-01-01T06:43:00Z,27.2925,-90.9681,21.3,100.0,105.3,-9999.0,'111111111,111111111,999999991'
Anadarko,ioos:station:wmo:42377:1,2022-01-01T07:03:00Z,27.2925,-90.9681,21.3,100.0,105.6,-9999.0,'111111111,111111111,999999991'
Anadarko,ioos:station:wmo:42377:1,2022-01-01T07:23:00Z,27.2925,-90.9681,21.3,97.5,105.8,-9999.0,'111111111,111111111,999999991'
Anadarko,ioos:station:wmo:42377:1,2022-01-01T07:43:00Z,27.2925,-90.9681,21.3,99.1,104.7,-9999.0,'111111111,111111111,999999991'
Anadarko,ioos:station:wmo:42377:1,2022-01-01T08:03:00Z,27.2925,-90.9681,21.3,96.7,106.3,-9999.0,'111111111,111111111,999999991'
Anadarko,ioos:station:wmo:42377:1,2022-01-01T08:23:00Z,27.2925,-90.9681,21.3,97.0,104.9,-9999.0,'111111111,111111111,999999991'
Anadarko,ioos:station:wmo:42377:1,2022-01-01T08:43:00Z,27.2925,-90.9681,21.3,96.0,104.8,-9999.0,'111111111,111111111,999999991'
Anadarko,ioos:station:wmo:42377:1,2022-01-01T09:03:00Z,27.2925,-90.9681,21.3,96.6,106.2,-9999.0,'111111111,111111111,999999991'
Anadarko,ioos:station:wmo:42377:1,2022-01-01T09:23:00Z,27.2925,-90.9681,21.3,96.3,103.8,-9999.0,'111111111,111111111,999999991'
Anadarko,ioos:station:wmo:42377:1,2022-01-01T09:43:00Z,27.2925,-90.9681,21.3,95.9,103.9,-9999.0,'111111111,111111111,999999991'
Anadarko,ioos:station:wmo:42377:1,2022-01-01T10:03:00Z,27.2925,-90.9681,21.3,96.3,103.7,-9999.0,'111111111,111111111,999999991'
Anadarko,ioos:station:wmo:42377:1,2022-01-01T10:23:00Z,27.2925,-90.9681,21.3,95.0,104.1,-9999.0,'111111111,111111111,999999991'
Anadarko,ioos:station:wmo:42377:1,2022-01-01T10:43:00Z,27.2925,-90.9681,21.3,94.7,103.9,-9999.0,'111111111,111111111,999999991'
Anadarko,ioos:station:wmo:42377:1,2022-01-01T11:03:00Z,27.2925,-90.9681,21.3,96.4,103.4,-9999.0,'111111111,111111111,999999991'
Anadarko,ioos:station:wmo:42377:1,2022-01-01T11:23:00Z,27.2925,-90.9681,21.3,98.5,101.1,-9999.0,'111111111,111111111,999999991'
Anadarko,ioos:station:wmo:42377:1,2022-01-01T11:43:00Z,27.2925,-90.9681,21.3,104.7,97.6,-9999.0,'111111111,111111111,999999991'
Anadarko,ioos:station:wmo:42377:1,2022-01-01T12:03:00Z,27.2925,-90.9681,21.3,112.6,95.2,-9999.0,'111111111,111111111,999999991'
Anadarko,ioos:station:wmo:42377:1,2022-01-01T12:23:00Z,27.2925,-90.9681,21.3,109.3,96.5,-9999.0,'111111111,111111111,999999991'
Anadarko,ioos:station:wmo:42377:1,2022-01-01T12:43:00Z,27.2925,-90.9681,21.3,108.1,93.4,-9999.0,'111111111,111111111,999999991'
Anadarko,ioos:station:wmo:42377:1,2022-01-01T13:03:00Z,27.2925,-90.9681,21.3,111.3,94.7,-9999.0,'111111111,111111111,999999991'
Anadarko,ioos:station:wmo:42377:1,2022-01-01T13:23:00Z,27.2925,-90.9681,21.3,114.0,93.7,-9999.0,'111111111,111111111,999999991'
Anadarko,ioos:station:wmo:42377:1,2022-01-01T13:43:00Z,27.2925,-90.9681,21.3,108.5,94.3,-9999.0,'111111111,111111111,999999991'
Anadarko,ioos:station:wmo:42377:1,2022-01-01T14:03:00Z,27.2925,-90.9681,21.3,102.0,94.9,-9999.0,'111111111,111111111,999999991'
Anadarko,ioos:station:wmo:42377:1,2022-01-01T14:23:00Z,27.2925,-90.9681,21.3,106.3,93.8,-9999.0,'111111111,111111111,999999991'
Anadarko,ioos:station:wmo:42377:1,2022-01-01T14:43:00Z,27.2925,-90.9681,21.3,101.6,93.6,-9999.0,'111111111,111111111,999999991'
Anadarko,ioos:station:wmo:42377:1,2022-01-01T15:03:00Z,27.2925,-90.9681,21.3,98.6,95.7,-9999.0,'111111111,111111111,999999991'
Anadarko,ioos:station:wmo:42377:1,2022-01-01T15:23:00Z,27.2925,-90.9681,21.3,106.6,93.0,-9999.0,'111111111,111111111,999999991'
Anadarko,ioos:station:wmo:42377:1,2022-01-01T15:43:00Z,27.2925,-90.9681,21.3,110.1,93.1,-9999.0,'111111111,111111111,999999991'
Anadarko,ioos:station:wmo:42377:1,2022-01-01T16:03:00Z,27.2925,-90.9681,21.3,111.1,92.7,-9999.0,'111111111,111111111,999999991'
Anadarko,ioos:station:wmo:42377:1,2022-01-01T16:23:00Z,27.2925,-90.9681,21.3,112.5,93.1,-9999.0,'111111111,111111111,999999991'
Anadarko,ioos:station:wmo:42377:1,2022-01-01T16:43:00Z,27.2925,-90.9681,21.3,99.4,95.2,-9999.0,'111111111,111111111,999999991'
Anadarko,ioos:station:wmo:42377:1,2022-01-01T17:03:00Z,27.2925,-90.9681,21.3,96.0,92.8,-9999.0,'111111111,111111111,999999991'
Anadarko,ioos:station:wmo:42377:1,2022-01-01T17:23:00Z,27.2925,-90.9681,21.3,107.5,92.7,-9999.0,'111111111,111111111,999999991'
Anadarko,ioos:station:wmo:42377:1,2022-01-01T17:43:00Z,27.2925,-90.9681,21.3,115.9,91.3,-9999.0,'111111111,111111111,999999991'
Anadarko,ioos:station:wmo:42377:1,2022-01-01T18:03:00Z,27.2925,-90.9681,21.3,109.8,93.6,-9999.0,'111111111,111111111,999999991'
Anadarko,ioos:station:wmo:42377:1,2022-01-01T18:23:00Z,27.2925,-90.9681,21.3,106.0,95.7,-9999.0,'111111111,111111111,999999991'
Anadarko,ioos:station:wmo:42377:1,2022-01-01T18:43:00Z,27.2925,-90.9681,21.3,109.6,95.2,-9999.0,'111111111,111111111,999999991'
Anadarko,ioos:station:wmo:42377:1,2022-01-01T19:03:00Z,27.2925,-90.9681,21.3,105.3,95.6,-9999.0,'111111111,111111111,999999991'
Anadarko,ioos:station:wmo:42377:1,2022-01-01T19:23:00Z,27.2925,-90.9681,21.3,104.4,96.2,-9999.0,'111111111,111111111,999999991'
Anadarko,ioos:station:wmo:42377:1,2022-01-01T19:43:00Z,27.2925,-90.9681,21.3,100.2,98.1,-9999.0,'111111111,111111111,999999991'
Anadarko,ioos:station:wmo:42377:1,2022-01-01T20:03:00Z,27.2925,-90.9681,21.3,105.7,96.2,-9999.0,'111111111,111111111,999999991'
Anadarko,ioos:station:wmo:42377:1,2022-01-01T20:23:00Z,27.2925,-90.9681,21.3,104.7,97.4,-9999.0,'111111111,111111111,999999991'
Anadarko,ioos:station:wmo:42377:1,2022-01-01T20:43:00Z,27.2925,-90.9681,21.3,103.6,98.8,-9999.0,'111111111,111111111,999999991'
Anadarko,ioos:station:wmo:42377:1,2022-01-01T21:03:00Z,27.2925,-90.9681,21.3,100.5,100.3,-9999.0,'111111111,111111111,999999991'
Anadarko,ioos:station:wmo:42377:1,2022-01-01T21:23:00Z,27.2925,-90.9681,21.3,100.5,102.9,-9999.0,'111111111,111111111,999999991'
Anadarko,ioos:station:wmo:42377:1,2022-01-01T21:43:00Z,27.2925,-90.9681,21.3,104.2,101.6,-9999.0,'111111111,111111111,999999991'
Anadarko,ioos:station:wmo:42377:1,2022-01-01T22:03:00Z,27.2925,-90.9681,21.3,103.6,101.5,-9999.0,'111111111,111111111,999999991'
Anadarko,ioos:station:wmo:42377:1,2022-01-01T22:23:00Z,27.2925,-90.9681,21.3,104.7,102.1,-9999.0,'111111111,111111111,999999991'
Anadarko,ioos:station:wmo:42377:1,2022-01-01T22:43:00Z,27.2925,-90.9681,21.3,107.9,103.1,-9999.0,'111111111,111111111,999999991'
Anadarko,ioos:station:wmo:42377:1,2022-01-01T23:03:00Z,27.2925,-90.9681,21.3,106.2,103.8,-9999.0,'111111111,111111111,999999991'
Anadarko,ioos:station:wmo:42377:1,2022-01-01T23:23:00Z,27.2925,-90.9681,21.3,103.3,104.0,-9999.0,'111111111,111111111,999999991'
Anadarko,ioos:station:wmo:42377:1,2022-01-01T23:43:00Z,27.2925,-90.9681,21.3,103.4,104.9,-9999.0,'111111111,111111111,999999991'
Anadarko,ioos:station:wmo:42377:1,2022-01-02T00:03:00Z,27.2925,-90.9681,21.3,109.2,103.5,-9999.0,'111111111,111111111,999999991'
Anadarko,ioos:station:wmo:42377:1,2022-01-02T00:23:00Z,27.2925,-90.9681,21.3,107.6,104.4,-9999.0,'111111111,111111111,999999991'
Anadarko,ioos:station:wmo:42377:1,2022-01-02T00:43:00Z,27.2925,-90.9681,21.3,104.9,104.7,-9999.0,'111111111,111111111,999999991'
Anadarko,ioos:station:wmo:42377:1,2022-01-02T01:03:00Z,27.2925,-90.9681,21.3,105.4,105.0,-9999.0,'111111111,111111111,999999991'
Anadarko,ioos:station:wmo:42377:1,2022-01-02T01:23:00Z,27.2925,-90.9681,21.3,109.6,104.4,-9999.0,'111111111,111111111,999999991'
Anadarko,ioos:station:wmo:42377:1,2022-01-02T01:43:00Z,27.2925,-90.9681,21.3,107.8,104.9,-9999.0,'111111111,111111111,999999991'
Anadarko,ioos:station:wmo:42377:1,2022-01-02T02:03:00Z,27.2925,-90.9681,21.3,110.3,104.3,-9999.0,'111111111,111111111,999999991'
Anadarko,ioos:station:wmo:42377:1,2022-01-02T02:23:00Z,27.2925,-90.9681,21.3,110.5,105.4,-9999.0,'111111111,111111111,999999991'
Anadarko,ioos:station:wmo:42377:1,2022-01-02T02:43:00Z,27.2925,-90.9681,21.3,107.5,106.0,-9999.0,'111111111,111111111,999999991'
Anadarko,ioos:station:wmo:42377:1,2022-01-02T03:03:00Z,27.2925,-90.9681,21.3,102.7,107.0,-9999.0,'111111111,111111111,999999991'
Anadarko,ioos:station:wmo:42377:1,2022-01-02T03:23:00Z,27.2925,-90.9681,21.3,103.8,109.2,-9999.0,'111111111,111111111,999999991'
Anadarko,ioos:station:wmo:42377:1,2022-01-02T03:43:00Z,27.2925,-90.9681,21.3,102.0,109.6,-9999.0,'111111111,111111111,999999991'
Anadarko,ioos:station:wmo:42377:1,2022-01-02T04:03:00Z,27.2925,-90.9681,21.3,102.8,111.6,-9999.0,'111111111,111111111,999999991'
Anadarko,ioos:station:wmo:42377:1,2022-01-02T04:23:00Z,27.2925,-90.9681,21.3,98.3,113.3,-9999.0,'111111111,111111111,999999991'
Anadarko,ioos:station:wmo:42377:1,2022-01-02T04:43:00Z,27.2925,-90.9681,21.3,96.0,114.2,-9999.0,'111111111,111111111,999999991'
Anadarko,ioos:station:wmo:42377:1,2022-01-02T05:03:00Z,27.2925,-90.9681,21.3,96.3,115.1,-9999.0,'111111111,111111111,999999991'
Anadarko,ioos:station:wmo:42377:1,2022-01-02T05:23:00Z,27.2925,-90.9681,21.3,89.6,120.0,-9999.0,'111111111,111111111,999999991'
Anadarko,ioos:station:wmo:42377:1,2022-01-02T05:43:00Z,27.2925,-90.9681,21.3,93.7,121.9,-9999.0,'111111111,111111111,999999991'
Anadarko,ioos:station:wmo:42377:1,2022-01-02T06:03:00Z,27.2925,-90.9681,21.3,89.8,123.5,-9999.0,'111111111,111111111,999999991'
Anadarko,ioos:station:wmo:42377:1,2022-01-02T06:23:00Z,27.2925,-90.9681,21.3,92.3,123.3,-9999.0,'111111111,111111111,999999991'
Anadarko,ioos:station:wmo:42377:1,2022-01-02T06:43:00Z,27.2925,-90.9681,21.3,87.3,125.7,-9999.0,'111111111,111111111,999999991'
Anadarko,ioos:station:wmo:42377:1,2022-01-02T07:03:00Z,27.2925,-90.9681,21.3,88.4,123.7,-9999.0,'111111111,111111111,999999991'
Anadarko,ioos:station:wmo:42377:1,2022-01-02T07:23:00Z,27.2925,-90.9681,21.3,86.8,123.8,-9999.0,'111111111,111111111,999999991'
Anadarko,ioos:station:wmo:42377:1,2022-01-02T07:43:00Z,27.2925,-90.9681,21.3,86.7,125.5,-9999.0,'111111111,111111111,999999991'
Anadarko,ioos:station:wmo:42377:1,2022-01-02T08:03:00Z,27.2925,-90.9681,21.3,84.3,131.3,-9999.0,'111111111,111111111,999999991'
Anadarko,ioos:station:wmo:42377:1,2022-01-02T08:23:00Z,27.2925,-90.9681,21.3,83.6,128.8,-9999.0,'111111111,111111111,999999991'
Anadarko,ioos:station:wmo:42377:1,2022-01-02T08:43:00Z,27.2925,-90.9681,21.3,88.0,129.0,-9999.0,'111111111,111111111,999999991'
Anadarko,ioos:station:wmo:42377:1,2022-01-02T09:03:00Z,27.2925,-90.9681,21.3,85.0,125.0,-9999.0,'111111111,111111111,999999991'
Anadarko,ioos:station:wmo:42377:1,2022-01-02T09:23:00Z,27.2925,-90.9681,21.3,81.8,128.1,-9999.0,'111111111,111111111,999999991'
Anadarko,ioos:station:wmo:42377:1,2022-01-02T09:43:00Z,27.2925,-90.9681,21.3,82.9,130.0,-9999.0,'111111111,111111111,999999991'
Anadarko,ioos:station:wmo:42377:1,2022-01-02T10:03:00Z,27.2925,-90.9681,21.3,83.0,132.8,-9999.0,'111111111,111111111,999999991'
Anadarko,ioos:station:wmo:42377:1,2022-01-02T10:23:00Z,27.2925,-90.9681,21.3,84.2,128.8,-9999.0,'111111111,111111111,999999991'
Anadarko,ioos:station:wmo:42377:1,2022-01-02T10:43:00Z,27.2925,-90.9681,21.3,82.4,124.2,-9999.0,'111111111,111111111,999999991'
Anadarko,ioos:station:wmo:42377:1,2022-01-02T11:03:00Z,27.2925,-90.9681,21.3,85.9,118.0,-9999.0,'111111111,111111111,999999991'
Anadarko,ioos:station:wmo:42377:1,2022-01-02T11:23:00Z,27.2925,-90.9681,21.3,82.5,124.0,-9999.0,'111111111,111111111,999999991'
Anadarko,ioos:station:wmo:42377:1,2022-01-02T11:43:00Z,27.2925,-90.9681,21.3,83.5,122.6,-9999.0,'111111111,111111111,999999991'
Anadarko,ioos:station:wmo:42377:1,2022-01-02T12:03:00Z,27.2925,-90.9681,21.3,83.7,120.7,-9999.0,'111111111,111111111,999999991'
Anadarko,ioos:station:wmo:42377:1,2022-01-02T12:23:00Z,27.2925,-90.9681,21.3,83.3,118.3,-9999.0,'111111111,111111111,999999991'
Anadarko,ioos:station:wmo:42377:1,2022-01-02T12:43:00Z,27.2925,-90.9681,21.3,82.8,113.9,-9999.0,'111111111,111111111,999999991'
Anadarko,ioos:station:wmo:42377:1,2022-01-02T13:03:00Z,27.2925,-90.9681,21.3,83.5,112.2,-9999.0,'111111111,111111111,999999991'
Anadarko,ioos:station:wmo:42377:1,2022-01-02T13:23:00Z,27.2925,-90.9681,21.3,84.1,108.6,-9999.0,'111111111,111111111,999999991'
Anadarko,ioos:station:wmo:42377:1,2022-01-02T13:43:00Z,27.2925,-90.9681,21.3,86.3,107.3,-9999.0,'111111111,111111111,999999991'
Anadarko,ioos:station:wmo:42377:1,2022-01-02T14:03:00Z,27.2925,-90.9681,21.3,86.1,105.0,-9999.0,'111111111,111111111,999999991'
Anadarko,ioos:station:wmo:42377:1,2022-01-02T14:23:00Z,27.2925,-90.9681,21.3,86.6,103.3,-9999.0,'111111111,111111111,999999991'
Anadarko,ioos:station:wmo:42377:1,2022-01-02T14:43:00Z,27.2925,-90.9681,21.3,84.4,102.2,-9999.0,'111111111,111111111,999999991'
Anadarko,ioos:station:wmo:42377:1,2022-01-02T15:03:00Z,27.2925,-90.9681,21.3,86.2,101.3,-9999.0,'111111111,111111111,999999991'
Anadarko,ioos:station:wmo:42377:1,2022-01-02T15:23:00Z,27.2925,-90.9681,21.3,86.4,100.7,-9999.0,'111111111,111111111,999999991'
Anadarko,ioos:station:wmo:42377:1,2022-01-02T15:43:00Z,27.2925,-90.9681,21.3,91.1,97.8,-9999.0,'111111111,111111111,999999991'
Anadarko,ioos:station:wmo:42377:1,2022-01-02T16:03:00Z,27.2925,-90.9681,21.3,85.9,99.8,-9999.0,'111111111,111111111,999999991'
Anadarko,ioos:station:wmo:42377:1,2022-01-02T16:23:00Z,27.2925,-90.9681,21.3,87.9,100.7,-9999.0,'111111111,111111111,999999991'
Anadarko,ioos:station:wmo:42377:1,2022-01-02T16:43:00Z,27.2925,-90.9681,21.3,89.8,99.7,-9999.0,'111111111,111111111,999999991'
Anadarko,ioos:station:wmo:42377:1,2022-01-02T17:03:00Z,27.2925,-90.9681,21.3,90.0,98.8,-9999.0,'111111111,111111111,999999991'
Anadarko,ioos:station:wmo:42377:1,2022-01-02T17:23:00Z,27.2925,-90.9681,21.3,91.4,99.3,-9999.0,'111111111,111111111,999999991'
Anadarko,ioos:station:wmo:42377:1,2022-01-02T17:43:00Z,27.2925,-90.9681,21.3,91.3,98.9,-9999.0,'111111111,111111111,999999991'
Anadarko,ioos:station:wmo:42377:1,2022-01-02T18:03:00Z,27.2925,-90.9681,21.3,91.1,99.7,-9999.0,'111111111,111111111,999999991'
Anadarko,ioos:station:wmo:42377:1,2022-01-02T18:23:00Z,27.2925,-90.9681,21.3,92.6,100.6,-9999.0,'111111111,111111111,999999991'
Anadarko,ioos:station:wmo:42377:1,2022-01-02T18:43:00Z,27.2925,-90.9681,21.3,92.4,102.8,-9999.0,'111111111,111111111,999999991'
Anadarko,ioos:station:wmo:42377:1,2022-01-02T19:03:00Z,27.2925,-90.9681,21.3,91.3,106.0,-9999.0,'111111111,111111111,999999991'
Anadarko,ioos:station:wmo:42377:1,2022-01-02T19:23:00Z,27.2925,-90.9681,21.3,87.8,109.1,-9999.0,'111111111,111111111,999999991'
Anadarko,ioos:station:wmo:42377:1,2022-01-02T19:43:00Z,27.2925,-90.9681,21.3,86.7,110.1,-9999.0,'111111111,111111111,999999991'
Anadarko,ioos:station:wmo:42377:1,2022-01-02T20:03:00Z,27.2925,-90.9681,21.3,86.5,112.1,-9999.0,'111111111,111111111,999999991'
Anadarko,ioos:station:wmo:42377:1,2022-01-02T20:23:00Z,27.2925,-90.9681,21.3,86.6,113.6,-9999.0,'111111111,111111111,999999991'
Anadarko,ioos:station:wmo:42377:1,2022-01-02T20:43:00Z,27.2925,-90.9681,21.3,83.6,118.8,-9999.0,'111111111,111111111,999999991'
Anadarko,ioos:station:wmo:42377:1,2022-01-02T21:03:00Z,27.2925,-90.9681,21.3,85.8,122.0,-9999.0,'111111111,111111111,999999991'
Anadarko,ioos:station:wmo:42377:1,2022-01-02T21:23:00Z,27.2925,-90.9681,21.3,81.4,127.5,-9999.0,'111111111,111111111,999999991'
Anadarko,ioos:station:wmo:42377:1,2022-01-02T21:43:00Z,27.2925,-90.9681,21.3,78.7,128.3,-9999.0,'111111111,111111111,999999991'
Anadarko,ioos:station:wmo:42377:1,2022-01-02T22:03:00Z,27.2925,-90.9681,21.3,78.9,132.9,-9999.0,'111111111,111111111,999999991'
Anadarko,ioos:station:wmo:42377:1,2022-01-02T22:23:00Z,27.2925,-90.9681,21.3,79.3,136.4,-9999.0,'111111111,111111111,999999991'
Anadarko,ioos:station:wmo:42377:1,2022-01-02T22:43:00Z,27.2925,-90.9681,21.3,74.6,133.3,-9999.0,'111111111,111111111,999999991'
Anadarko,ioos:station:wmo:42377:1,2022-01-02T23:03:00Z,27.2925,-90.9681,21.3,73.2,135.5,-9999.0,'111111111,111111111,999999991'
Anadarko,ioos:station:wmo:42377:1,2022-01-02T23:23:00Z,27.2925,-90.9681,21.3,76.0,135.7,-9999.0,'111111111,111111111,999999991'
Anadarko,ioos:station:wmo:42377:1,2022-01-02T23:43:00Z,27.2925,-90.9681,21.3,67.6,138.1,-9999.0,'111111111,111111111,999999991'
Anadarko,ioos:station:wmo:42377:1,2022-01-03T00:03:00Z,27.2925,-90.9681,21.3,70.7,142.6,-9999.0,'111111111,111111111,999999991'
Anadarko,ioos:station:wmo:42377:1,2022-01-03T00:23:00Z,27.2925,-90.9681,21.3,72.0,143.0,-9999.0,'111111111,111111111,999999991'
Anadarko,ioos:station:wmo:42377:1,2022-01-03T00:43:00Z,27.2925,-90.9681,21.3,70.8,139.6,-9999.0,'111111111,111111111,999999991'
Anadarko,ioos:station:wmo:42377:1,2022-01-03T01:03:00Z,27.2925,-90.9681,21.3,69.8,140.8,-9999.0,'111111111,111111111,999999991'
Anadarko,ioos:station:wmo:42377:1,2022-01-03T01:23:00Z,27.2925,-90.9681,21.3,68.6,151.0,-9999.0,'111111111,111111111,999999991'
Anadarko,ioos:station:wmo:42377:1,2022-01-03T01:43:00Z,27.2925,-90.9681,21.3,69.0,144.3,-9999.0,'111111111,111111111,999999991'
Anadarko,ioos:station:wmo:42377:1,2022-01-03T02:03:00Z,27.2925,-90.9681,21.3,66.2,153.6,-9999.0,'111111111,111111111,999999991'
Anadarko,ioos:station:wmo:42377:1,2022-01-03T02:23:00Z,27.2925,-90.9681,21.3,65.6,141.6,-9999.0,'111111111,111111111,999999991'
Anadarko,ioos:station:wmo:42377:1,2022-01-03T02:43:00Z,27.2925,-90.9681,21.3,67.6,144.9,-9999.0,'111111111,111111111,999999991'
Anadarko,ioos:station:wmo:42377:1,2022-01-03T03:03:00Z,27.2925,-90.9681,21.3,66.4,155.4,-9999.0,'111111111,111111111,999999991'
Anadarko,ioos:station:wmo:42377:1,2022-01-03T03:23:00Z,27.2925,-90.9681,21.3,64.9,152.0,-9999.0,'111111111,111111111,999999991'
Anadarko,ioos:station:wmo:42377:1,2022-01-03T03:43:00Z,27.2925,-90.9681,21.3,61.4,150.8,-9999.0,'111111111,111111111,999999991'
Anadarko,ioos:station:wmo:42377:1,2022-01-03T04:03:00Z,27.2925,-90.9681,21.3,62.4,147.4,-9999.0,'111111111,111111111,999999991'
Anadarko,ioos:station:wmo:42377:1,2022-01-03T04:23:00Z,27.2925,-90.9681,21.3,63.6,159.1,-9999.0,'111111111,111111111,999999991'
Anadarko,ioos:station:wmo:42377:1,2022-01-03T04:43:00Z,27.2925,-90.9681,21.3,59.9,143.8,-9999.0,'111111111,111111111,999999991'
Anadarko,ioos:station:wmo:42377:1,2022-01-03T05:03:00Z,27.2925,-90.9681,21.3,61.4,156.1,-9999.0,'111111111,111111111,999999991'
Anadarko,ioos:station:wmo:42377:1,2022-01-03T05:23:00Z,27.2925,-90.9681,21.3,58.1,151.8,-9999.0,'111111111,111111111,999999991'
Anadarko,ioos:station:wmo:42377:1,2022-01-03T05:43:00Z,27.2925,-90.9681,21.3,59.6,140.9,-9999.0,'111111111,111111111,999999991'
Anadarko,ioos:station:wmo:42377:1,2022-01-03T06:03:00Z,27.2925,-90.9681,21.3,58.3,145.2,-9999.0,'111111111,111111111,999999991'
Anadarko,ioos:station:wmo:42377:1,2022-01-03T06:23:00Z,27.2925,-90.9681,21.3,56.4,143.8,-9999.0,'111111111,111111111,999999991'
Anadarko,ioos:station:wmo:42377:1,2022-01-03T06:43:00Z,27.2925,-90.9681,21.3,58.2,137.3,-9999.0,'111111111,111111111,999999991'
Anadarko,ioos:station:wmo:42377:1,2022-01-03T07:03:00Z,27.2925,-90.9681,21.3,59.8,130.1,-9999.0,'111111111,111111111,999999991'
Anadarko,ioos:station:wmo:42377:1,2022-01-03T07:23:00Z,27.2925,-90.9681,21.3,60.7,137.3,-9999.0,'111111111,111111111,999999991'
Anadarko,ioos:station:wmo:42377:1,2022-01-03T07:43:00Z,27.2925,-90.9681,21.3,58.3,132.1,-9999.0,'111111111,111111111,999999991'
Anadarko,ioos:station:wmo:42377:1,2022-01-03T08:03:00Z,27.2925,-90.9681,21.3,57.7,132.0,-9999.0,'111111111,111111111,999999991'
Anadarko,ioos:station:wmo:42377:1,2022-01-03T08:23:00Z,27.2925,-90.9681,21.3,59.6,122.6,-9999.0,'111111111,111111111,999999991'
Anadarko,ioos:station:wmo:42377:1,2022-01-03T08:43:00Z,27.2925,-90.9681,21.3,61.0,118.7,-9999.0,'111111111,111111111,999999991'
Anadarko,ioos:station:wmo:42377:1,2022-01-03T09:03:00Z,27.2925,-90.9681,21.3,64.1,114.0,-9999.0,'111111111,111111111,999999991'
Anadarko,ioos:station:wmo:42377:1,2022-01-03T09:23:00Z,27.2925,-90.9681,21.3,64.1,113.2,-9999.0,'111111111,111111111,999999991'
Anadarko,ioos:station:wmo:42377:1,2022-01-03T09:43:00Z,27.2925,-90.9681,21.3,63.5,111.9,-9999.0,'111111111,111111111,999999991'
Anadarko,ioos:station:wmo:42377:1,2022-01-03T10:03:00Z,27.2925,-90.9681,21.3,64.6,112.3,-9999.0,'111111111,111111111,999999991'
Anadarko,ioos:station:wmo:42377:1,2022-01-03T10:23:00Z,27.2925,-90.9681,21.3,65.8,113.4,-9999.0,'111111111,111111111,999999991'
Anadarko,ioos:station:wmo:42377:1,2022-01-03T10:43:00Z,27.2925,-90.9681,21.3,68.0,106.8,-9999.0,'111111111,111111111,999999991'
Anadarko,ioos:station:wmo:42377:1,2022-01-03T11:03:00Z,27.2925,-90.9681,21.3,66.3,106.5,-9999.0,'111111111,111111111,999999991'
Anadarko,ioos:station:wmo:42377:1,2022-01-03T11:23:00Z,27.2925,-90.9681,21.3,66.9,105.9,-9999.0,'111111111,111111111,999999991'
Anadarko,ioos:station:wmo:42377:1,2022-01-03T11:43:00Z,27.2925,-90.9681,21.3,71.1,104.3,-9999.0,'111111111,111111111,999999991'
Anadarko,ioos:station:wmo:42377:1,2022-01-03T12:03:00Z,27.2925,-90.9681,21.3,71.3,103.2,-9999.0,'111111111,111111111,999999991'
Anadarko,ioos:station:wmo:42377:1,2022-01-03T12:23:00Z,27.2925,-90.9681,21.3,71.6,100.4,-9999.0,'111111111,111111111,999999991'
Anadarko,ioos:station:wmo:42377:1,2022-01-03T12:43:00Z,27.2925,-90.9681,21.3,72.5,99.2,-9999.0,'111111111,111111111,999999991'
Anadarko,ioos:station:wmo:42377:1,2022-01-03T13:03:00Z,27.2925,-90.9681,21.3,72.0,97.0,-9999.0,'111111111,111111111,999999991'